Location: B
(0.0000°N, 0.0000°E)
Time: 03:17:07
(UTC+02:00)

Cosmos 1025 Rocket - Visible Passes

Search period start: 30 May 2017 00:00
Search period end: 09 June 2017 00:00
Orbit: 593 x 619 km, 82.5° (Epoch: 29 May)

Date Brightness Start Highest point End Pass type
(mag) Time Alt. Az. Time Alt. Az. Time Alt. Az.
30 May 4.3 21:20:29 24° NE 21:20:29 24° NE 21:22:39 10° NNE visible
31 May 2.8 21:32:07 66° ESE 21:32:14 66° E 21:36:27 10° NNE visible
01 Jun 3.5 21:43:25 27° SSW 21:45:35 57° W 21:49:46 10° N visible
02 Jun 4.9 21:55:17 10° SW 21:58:56 27° W 22:02:34 10° NNW visible
03 Jun 4.3 20:31:48 10° SE 20:34:58 20° E 20:38:07 10° NE visible
03 Jun 6.0 22:10:06 10° WSW 22:12:17 14° W 22:14:28 10° NW visible
04 Jun 3.4 20:44:18 10° SSE 20:48:19 41° E 20:52:19 10° NNE visible
05 Jun 2.9 20:57:24 10° S 21:01:41 88° E 21:05:56 10° N visible
06 Jun 4.2 21:10:59 10° SSW 21:15:02 43° W 21:19:04 10° NNW visible
07 Jun 5.6 21:25:08 10° SW 21:28:23 21° W 21:31:37 10° NW visible
08 Jun 6.4 21:41:04 10° W 21:41:44 10° W 21:42:24 10° WNW visible
